Terminal Aerodrome Forecast
Issued by NWS

Home | Current Version | Previous Version | Text Only | Print | Product List | Glossary On
Versions: 1 2 3 4 5 6 7 8 9 10 11 12 13 14 15 16 17 18
000
FTUS44 KEWX 302320
TAFSSF
TAF
KSSF 302320Z 3100/3124 15005KT P6SM FEW070
     FM310700 VRB03KT P6SM SCT070 SCT250
     FM311700 06007KT P6SM SCT070 SCT250=

USA.gov is the U.S. government's official web portal to all federal, state and local government web resources and services.